Location: Asheville, NC
(35.6000°N, 82.5500°W)
Time: 09:34:25
(UTC-04:00)

LilacSat-2 - Pass Details

Date: 18 March 2018
Orbit: 514 x 536 km, 97.5° (Epoch: 24 June)

Event Time Altitude Azimuth Distance (km) Brightness Sun altitude
Rises 06:59:01 0° 22° (NNE) 2,683 ? -8.5°
Reaches altitude 10° 07:01:17 10° 31° (NNE) 1,790 ? -8.0°
Maximum altitude 07:04:49 34° 98° (E) 891 ? -7.3°
Drops below altitude 10° 07:08:21 10° 164° (SSE) 1,783 ? -6.6°
Sets 07:10:36 0° 174° (S) 2,670 ? -6.1°
